XNO18C EDDH-ENGM

Flight info

Callsign XNO18C
Flight time 1h 9m
Altitude 36000
Route SOKWO1G SOKWO T814 EXNEL M105 AMRAK DCT NERDO DCT PIPEX M609 RIPAM
Aircraft A320/M-SDE3FGHIRWY/LB1

Departure

Time 2026-05-07 18:21
Airport Hamburg Helmut Schmidt Airport (EDDH)

Arrival

Time 2026-05-07 19:31
Airport Oslo-Gardermoen International Airport (ENGM)
Time Latitude Longitude Altitude Speed Heading
2026-05-07 17:43 53.63248 9.99913 41 ft 0 kts 142°
2026-05-07 18:05 53.63249 9.99913 50 ft 1 kts 142°
2026-05-07 18:05 53.63250 9.99911 50 ft 2 kts 142°
2026-05-07 18:06 53.63270 9.99885 49 ft 4 kts 142°
2026-05-07 18:06 53.63290 9.99858 49 ft 2 kts 142°
2026-05-07 18:06 53.63309 9.99839 48 ft 4 kts 187°
2026-05-07 18:06 53.63328 9.99861 46 ft 4 kts 236°
2026-05-07 18:07 53.63343 9.99895 48 ft 4 kts 230°
2026-05-07 18:07 53.63361 9.99930 48 ft 4 kts 230°
2026-05-07 18:07 53.63374 9.99956 48 ft 0 kts 230°
2026-05-07 18:09 53.63370 9.99947 44 ft 4 kts 230°
2026-05-07 18:10 53.63332 9.99871 50 ft 11 kts 230°
2026-05-07 18:10 53.63276 9.99768 50 ft 13 kts 217°
2026-05-07 18:10 53.63197 9.99786 47 ft 9 kts 153°
2026-05-07 18:10 53.63130 9.99842 50 ft 11 kts 152°
2026-05-07 18:11 53.63100 9.99869 50 ft 3 kts 152°
2026-05-07 18:11 53.63085 9.99883 50 ft 5 kts 152°
2026-05-07 18:11 53.63072 9.99895 50 ft 3 kts 152°
2026-05-07 18:11 53.63048 9.99916 50 ft 5 kts 152°
2026-05-07 18:12 53.63035 9.99928 50 ft 1 kts 152°
2026-05-07 18:12 53.63032 9.99930 50 ft 1 kts 152°
2026-05-07 18:12 53.63024 9.99938 50 ft 1 kts 152°
2026-05-07 18:12 53.63015 9.99946 50 ft 0 kts 152°
2026-05-07 18:14 53.63014 9.99947 50 ft 1 kts 152°
2026-05-07 18:14 53.63011 9.99949 50 ft 1 kts 152°
2026-05-07 18:14 53.63009 9.99952 50 ft 0 kts 152°
2026-05-07 18:15 53.63005 9.99955 50 ft 0 kts 152°
2026-05-07 18:15 53.63004 9.99956 50 ft 1 kts 151°
2026-05-07 18:15 53.63001 9.99959 50 ft 1 kts 151°
2026-05-07 18:15 53.62994 9.99965 49 ft 3 kts 151°
2026-05-07 18:16 53.62952 10.00001 48 ft 9 kts 153°
2026-05-07 18:16 53.62910 10.00036 48 ft 10 kts 156°
2026-05-07 18:16 53.62879 10.00037 50 ft 5 kts 197°
2026-05-07 18:16 53.62848 9.99981 50 ft 0 kts 239°
2026-05-07 18:18 53.62847 9.99979 50 ft 1 kts 239°
2026-05-07 18:19 53.62814 9.99868 49 ft 17 kts 252°
2026-05-07 18:19 53.62856 9.99748 49 ft 0 kts 330°
2026-05-07 18:20 53.62942 9.99670 49 ft 47 kts 333°
2026-05-07 18:21 53.63441 9.99247 51 ft 110 kts 333°
2026-05-07 18:21 53.64266 9.98536 51 ft 154 kts 333°
2026-05-07 18:21 53.65259 9.97669 478 ft 160 kts 336°
2026-05-07 18:21 53.66258 9.96821 1094 ft 162 kts 337°
2026-05-07 18:22 53.67266 9.95959 1769 ft 164 kts 337°
2026-05-07 18:22 53.67972 9.95357 2027 ft 176 kts 337°
2026-05-07 18:22 53.69639 9.94662 2438 ft 202 kts
2026-05-07 18:22 53.71096 9.94692 3040 ft 214 kts
2026-05-07 18:23 53.72597 9.94725 3836 ft 217 kts
2026-05-07 18:23 53.74063 9.95347 4563 ft 223 kts 27°
2026-05-07 18:23 53.75460 9.96756 4985 ft 246 kts 31°
2026-05-07 18:23 53.77182 9.97414 5577 ft 266 kts 358°
2026-05-07 18:24 53.79035 9.97016 6492 ft 270 kts 354°
2026-05-07 18:24 53.80901 9.96592 7392 ft 272 kts 354°
2026-05-07 18:24 53.82792 9.96175 8252 ft 276 kts 354°
2026-05-07 18:24 53.84709 9.95763 9099 ft 280 kts 353°
2026-05-07 18:25 53.86658 9.95351 9945 ft 284 kts 353°
2026-05-07 18:25 53.88654 9.94935 10484 ft 299 kts 353°
2026-05-07 18:25 53.90799 9.94491 10709 ft 322 kts 353°
2026-05-07 18:25 53.93101 9.94016 10881 ft 345 kts 353°
2026-05-07 18:26 53.95550 9.93509 11174 ft 361 kts 353°
2026-05-07 18:26 53.98068 9.92985 11772 ft 367 kts 353°
2026-05-07 18:26 54.00615 9.92458 12428 ft 371 kts 353°
2026-05-07 18:26 54.03188 9.91925 13099 ft 374 kts 352°
2026-05-07 18:27 54.05787 9.91380 13759 ft 378 kts 352°
2026-05-07 18:27 54.08415 9.90828 14356 ft 382 kts 352°
2026-05-07 18:27 54.11061 9.90269 14934 ft 385 kts 352°
2026-05-07 18:27 54.13734 9.89706 15501 ft 388 kts 352°
2026-05-07 18:28 54.16429 9.89142 16070 ft 391 kts 352°
2026-05-07 18:28 54.19142 9.88575 16635 ft 395 kts 352°
2026-05-07 18:28 54.21881 9.88001 17203 ft 398 kts 352°
2026-05-07 18:28 54.24639 9.87421 17794 ft 401 kts 352°
2026-05-07 18:29 54.27422 9.86838 18379 ft 405 kts 352°
2026-05-07 18:29 54.30228 9.86251 18886 ft 408 kts 352°
2026-05-07 18:29 54.33055 9.85658 19404 ft 410 kts 352°
2026-05-07 18:29 54.35897 9.85054 19929 ft 413 kts 352°
2026-05-07 18:30 54.38758 9.84443 20454 ft 416 kts 352°
2026-05-07 18:30 54.41635 9.83825 20952 ft 418 kts 352°
2026-05-07 18:30 54.44495 9.83208 21431 ft 420 kts 352°
2026-05-07 18:30 54.47441 9.82574 21925 ft 422 kts 352°
2026-05-07 18:31 54.50328 9.81953 22368 ft 425 kts 353°
2026-05-07 18:31 54.53269 9.81323 22806 ft 427 kts 353°
2026-05-07 18:31 54.56227 9.80689 23251 ft 429 kts 353°
2026-05-07 18:31 54.59222 9.80049 23679 ft 432 kts 353°
2026-05-07 18:32 54.62191 9.79417 24036 ft 434 kts 353°
2026-05-07 18:32 54.65198 9.78773 24399 ft 436 kts 353°
2026-05-07 18:32 54.68218 9.78125 24749 ft 439 kts 353°
2026-05-07 18:32 54.71255 9.77472 25098 ft 441 kts 353°
2026-05-07 18:33 54.74307 9.76817 25453 ft 443 kts 353°
2026-05-07 18:33 54.77376 9.76158 25806 ft 445 kts 353°
2026-05-07 18:33 54.80455 9.75490 26143 ft 448 kts 353°
2026-05-07 18:33 54.83553 9.74824 26481 ft 450 kts 353°
2026-05-07 18:34 54.86675 9.74244 26823 ft 452 kts 354°
2026-05-07 18:34 54.89808 9.73748 27308 ft 451 kts 355°
2026-05-07 18:34 54.92926 9.73300 27819 ft 450 kts 356°
2026-05-07 18:34 54.96042 9.72857 28333 ft 448 kts 355°
2026-05-07 18:35 54.99146 9.72403 28830 ft 448 kts 355°
2026-05-07 18:35 55.02249 9.71934 29331 ft 447 kts 355°
2026-05-07 18:35 55.05340 9.71452 29834 ft 446 kts 355°
2026-05-07 18:35 55.08432 9.70960 30318 ft 445 kts 355°
2026-05-07 18:36 55.11513 9.70464 30743 ft 445 kts 355°
2026-05-07 18:36 55.14589 9.69965 31202 ft 443 kts 355°
2026-05-07 18:36 55.17655 9.69462 31659 ft 442 kts 355°
2026-05-07 18:36 55.20716 9.68966 32132 ft 441 kts 355°
2026-05-07 18:37 55.23763 9.68476 32610 ft 439 kts 355°
2026-05-07 18:37 55.26799 9.67987 33089 ft 438 kts 355°
2026-05-07 18:37 55.29827 9.67503 33565 ft 436 kts 355°
2026-05-07 18:37 55.32843 9.67020 34033 ft 435 kts 355°
2026-05-07 18:38 55.35855 9.66537 34432 ft 434 kts 355°
2026-05-07 18:38 55.38867 9.66050 34752 ft 435 kts 355°
2026-05-07 18:38 55.41880 9.65561 35058 ft 436 kts 355°
2026-05-07 18:38 55.44901 9.65071 35362 ft 436 kts 355°
2026-05-07 18:39 55.47924 9.64583 35672 ft 437 kts 355°
2026-05-07 18:39 55.50950 9.64092 35975 ft 437 kts 354°
2026-05-07 18:39 55.53985 9.63601 36115 ft 440 kts 354°
2026-05-07 18:40 55.60118 9.62605 36137 ft 449 kts 354°
2026-05-07 18:40 55.66345 9.61577 36144 ft 450 kts 354°
2026-05-07 18:41 55.72581 9.60549 36139 ft 450 kts 354°
2026-05-07 18:41 55.78810 9.59523 36137 ft 449 kts 354°
2026-05-07 18:42 55.85040 9.58488 36143 ft 450 kts 354°
2026-05-07 18:42 55.91269 9.57457 36144 ft 450 kts 354°
2026-05-07 18:43 55.97496 9.56418 36142 ft 450 kts 354°
2026-05-07 18:43 56.03728 9.55375 36145 ft 450 kts 354°
2026-05-07 18:44 56.09958 9.54338 36136 ft 450 kts 354°
2026-05-07 18:44 56.16192 9.53297 36136 ft 450 kts 354°
2026-05-07 18:45 56.22425 9.52245 36131 ft 450 kts 354°
2026-05-07 18:45 56.28660 9.51188 36139 ft 450 kts 354°
2026-05-07 18:46 56.34894 9.50121 36142 ft 450 kts 354°
2026-05-07 18:46 56.41129 9.49058 36139 ft 450 kts 354°
2026-05-07 18:47 56.47365 9.47989 36144 ft 450 kts 354°
2026-05-07 18:47 56.53596 9.46913 36151 ft 450 kts 353°
2026-05-07 18:48 56.59830 9.45844 36156 ft 450 kts 353°
2026-05-07 18:48 56.66063 9.44777 36154 ft 450 kts 353°
2026-05-07 18:49 56.72296 9.43706 36155 ft 450 kts 353°
2026-05-07 18:49 56.78529 9.42615 36155 ft 450 kts 353°
2026-05-07 18:50 56.84761 9.41515 36156 ft 450 kts 353°
2026-05-07 18:50 56.90991 9.40419 36156 ft 450 kts 353°
2026-05-07 18:51 56.97218 9.39342 36157 ft 450 kts 353°
2026-05-07 18:51 57.03446 9.38254 36156 ft 450 kts 353°
2026-05-07 18:52 57.09673 9.37146 36157 ft 449 kts 353°
2026-05-07 18:52 57.15897 9.36044 36158 ft 449 kts 353°
2026-05-07 18:53 57.22122 9.34933 36160 ft 449 kts 353°
2026-05-07 18:53 57.28344 9.33818 36158 ft 449 kts 352°
2026-05-07 18:54 57.34564 9.32704 36158 ft 449 kts 352°
2026-05-07 18:54 57.40744 9.31601 36156 ft 449 kts 352°
2026-05-07 18:55 57.46965 9.30485 36158 ft 449 kts 352°
2026-05-07 18:55 57.53188 9.29351 36163 ft 449 kts 352°
2026-05-07 18:56 57.59407 9.28219 36162 ft 449 kts 352°
2026-05-07 18:56 57.65624 9.27090 36167 ft 449 kts 352°
2026-05-07 18:57 57.71841 9.25956 36163 ft 449 kts 352°
2026-05-07 18:57 57.78055 9.24807 36166 ft 449 kts 352°
2026-05-07 18:58 57.84268 9.23661 36161 ft 449 kts 352°
2026-05-07 18:58 57.90478 9.22527 36166 ft 448 kts 351°
2026-05-07 18:59 57.96688 9.21362 36166 ft 448 kts 351°
2026-05-07 18:59 58.02898 9.20271 36158 ft 450 kts 357°
2026-05-07 18:59 58.06021 9.20959 36167 ft 454 kts
2026-05-07 19:00 58.09113 9.22201 36159 ft 455 kts
2026-05-07 19:00 58.14254 9.24324 36162 ft 455 kts
2026-05-07 19:01 58.20438 9.26921 36160 ft 455 kts
2026-05-07 19:01 58.26629 9.29502 36162 ft 455 kts
2026-05-07 19:02 58.32823 9.32069 36165 ft 456 kts
2026-05-07 19:02 58.39017 9.34651 36164 ft 456 kts
2026-05-07 19:02 58.42117 9.35949 35973 ft 456 kts
2026-05-07 19:03 58.45212 9.37247 35731 ft 455 kts
2026-05-07 19:03 58.48304 9.38550 35483 ft 454 kts
2026-05-07 19:03 58.51388 9.39853 35240 ft 454 kts
2026-05-07 19:03 58.54472 9.41158 34995 ft 453 kts
2026-05-07 19:04 58.57548 9.42458 34753 ft 453 kts
2026-05-07 19:04 58.60626 9.43754 34514 ft 452 kts
2026-05-07 19:04 58.63697 9.45050 34277 ft 452 kts
2026-05-07 19:04 58.66766 9.46351 34022 ft 451 kts
2026-05-07 19:05 58.69834 9.47654 33749 ft 452 kts
2026-05-07 19:05 58.72903 9.48959 33479 ft 452 kts
2026-05-07 19:05 58.75981 9.50278 33209 ft 453 kts
2026-05-07 19:05 58.79061 9.51602 32944 ft 454 kts
2026-05-07 19:06 58.82147 9.52933 32677 ft 455 kts
2026-05-07 19:06 58.88331 9.55605 32161 ft 456 kts
2026-05-07 19:06 58.91436 9.56938 31896 ft 457 kts
2026-05-07 19:07 58.94542 9.58273 31641 ft 458 kts
2026-05-07 19:07 58.97653 9.59614 31389 ft 459 kts
2026-05-07 19:07 59.00771 9.60964 31136 ft 459 kts
2026-05-07 19:07 59.03894 9.62316 30887 ft 460 kts
2026-05-07 19:08 59.07022 9.63672 30633 ft 461 kts
2026-05-07 19:08 59.10153 9.65038 30395 ft 462 kts
2026-05-07 19:08 59.13290 9.66418 30143 ft 462 kts
2026-05-07 19:08 59.16427 9.67799 29688 ft 462 kts
2026-05-07 19:09 59.19567 9.69177 28904 ft 459 kts
2026-05-07 19:09 59.22628 9.70532 28750 ft 444 kts
2026-05-07 19:09 59.25588 9.71851 28612 ft 429 kts
2026-05-07 19:09 59.28448 9.73128 28475 ft 415 kts
2026-05-07 19:10 59.31182 9.74343 28340 ft 402 kts
2026-05-07 19:10 59.33866 9.75559 28196 ft 392 kts
2026-05-07 19:10 59.36481 9.76889 27955 ft 385 kts
2026-05-07 19:10 59.39045 9.78308 27506 ft 380 kts
2026-05-07 19:11 59.41579 9.79766 26786 ft 380 kts 10°
2026-05-07 19:11 59.44102 9.81230 26457 ft 376 kts 10°
2026-05-07 19:11 59.46587 9.82665 25888 ft 370 kts
2026-05-07 19:11 59.49040 9.84062 25289 ft 364 kts
2026-05-07 19:12 59.51460 9.85421 24819 ft 361 kts 10°
2026-05-07 19:12 59.53776 9.87401 24567 ft 370 kts 25°
2026-05-07 19:12 59.55991 9.90126 23716 ft 380 kts 26°
2026-05-07 19:12 59.58255 9.92953 22372 ft 389 kts 27°
2026-05-07 19:13 59.60537 9.95841 21359 ft 388 kts 28°
2026-05-07 19:13 59.62795 9.98707 20460 ft 384 kts 28°
2026-05-07 19:13 59.65030 10.01548 19604 ft 380 kts 28°
2026-05-07 19:13 59.67235 10.04355 18776 ft 375 kts 29°
2026-05-07 19:14 59.69435 10.07154 18178 ft 375 kts 29°
2026-05-07 19:14 59.71618 10.09936 17688 ft 371 kts 29°
2026-05-07 19:14 59.73778 10.12694 17222 ft 367 kts 29°
2026-05-07 19:14 59.75886 10.15400 17078 ft 354 kts 29°
2026-05-07 19:15 59.77921 10.18019 16881 ft 345 kts 29°
2026-05-07 19:15 59.79919 10.20591 16534 ft 340 kts 29°
2026-05-07 19:15 59.81897 10.23136 16148 ft 338 kts 29°
2026-05-07 19:15 59.83837 10.25629 15789 ft 335 kts 29°
2026-05-07 19:16 59.85790 10.28139 15426 ft 333 kts 30°
2026-05-07 19:16 59.87732 10.30639 15086 ft 331 kts 30°
2026-05-07 19:16 59.89660 10.33130 14737 ft 329 kts 30°
2026-05-07 19:16 59.91594 10.35636 14072 ft 337 kts 30°
2026-05-07 19:17 59.93584 10.38217 13378 ft 343 kts 31°
2026-05-07 19:17 59.95581 10.40812 12860 ft 342 kts 31°
2026-05-07 19:17 59.97567 10.43398 12411 ft 339 kts 31°
2026-05-07 19:17 59.99533 10.45965 11963 ft 336 kts 31°
2026-05-07 19:18 60.01482 10.48514 11537 ft 334 kts 31°
2026-05-07 19:18 60.03417 10.51041 11099 ft 331 kts 31°
2026-05-07 19:18 60.05209 10.53382 10711 ft 329 kts 31°
2026-05-07 19:18 60.07117 10.55878 10227 ft 328 kts 31°
2026-05-07 19:19 60.09062 10.58424 9412 ft 337 kts 32°
2026-05-07 19:19 60.10982 10.60943 9270 ft 324 kts 32°
2026-05-07 19:19 60.12829 10.63375 9118 ft 311 kts 32°
2026-05-07 19:19 60.14574 10.65685 8942 ft 292 kts 32°
2026-05-07 19:20 60.16249 10.67904 8721 ft 285 kts 32°
2026-05-07 19:20 60.17890 10.70077 8576 ft 283 kts 32°
2026-05-07 19:20 60.19538 10.72257 8443 ft 283 kts 32°
2026-05-07 19:20 60.21179 10.74432 8301 ft 282 kts 32°
2026-05-07 19:21 60.22814 10.76598 8178 ft 281 kts 32°
2026-05-07 19:21 60.24445 10.78762 8049 ft 280 kts 32°
2026-05-07 19:21 60.26070 10.80919 7915 ft 280 kts 32°
2026-05-07 19:21 60.27692 10.83073 7788 ft 279 kts 32°
2026-05-07 19:22 60.29291 10.85200 7660 ft 278 kts 32°
2026-05-07 19:22 60.30903 10.87351 7533 ft 278 kts 33°
2026-05-07 19:22 60.32514 10.89500 7403 ft 277 kts 33°
2026-05-07 19:22 60.34120 10.91646 7267 ft 277 kts 33°
2026-05-07 19:23 60.35722 10.93791 7125 ft 276 kts 33°
2026-05-07 19:23 60.37324 10.95938 6718 ft 279 kts 33°
2026-05-07 19:23 60.38931 10.98093 6143 ft 276 kts 33°
2026-05-07 19:23 60.40523 11.00229 5549 ft 273 kts 33°
2026-05-07 19:24 60.42097 11.02344 5161 ft 268 kts 33°
2026-05-07 19:24 60.43611 11.04423 5094 ft 257 kts 39°
2026-05-07 19:24 60.44672 11.07166 5036 ft 244 kts 69°
2026-05-07 19:24 60.44939 11.10435 4925 ft 232 kts 96°
2026-05-07 19:25 60.44448 11.13465 4725 ft 225 kts 124°
2026-05-07 19:25 60.43475 11.15886 4524 ft 219 kts 131°
2026-05-07 19:25 60.42493 11.18194 4339 ft 213 kts 131°
2026-05-07 19:25 60.41536 11.20413 4222 ft 205 kts 136°
2026-05-07 19:26 60.40405 11.22023 4123 ft 196 kts 156°
2026-05-07 19:26 60.39146 11.22723 4050 ft 182 kts 174°
2026-05-07 19:26 60.37921 11.22588 3897 ft 172 kts 192°
2026-05-07 19:26 60.36789 11.21945 3781 ft 168 kts 196°
2026-05-07 19:27 60.35673 11.21293 3668 ft 166 kts 195°
2026-05-07 19:27 60.34564 11.20646 3617 ft 167 kts 196°
2026-05-07 19:27 60.33452 11.19996 3452 ft 166 kts 196°
2026-05-07 19:27 60.32362 11.19361 3256 ft 165 kts 195°
2026-05-07 19:28 60.31263 11.18720 3034 ft 164 kts 195°
2026-05-07 19:28 60.30169 11.18083 2811 ft 163 kts 195°
2026-05-07 19:28 60.29090 11.17455 2587 ft 161 kts 195°
2026-05-07 19:28 60.28039 11.16844 2376 ft 154 kts 195°
2026-05-07 19:29 60.27031 11.16257 2163 ft 148 kts 195°
2026-05-07 19:29 60.26059 11.15693 1983 ft 142 kts 195°
2026-05-07 19:29 60.25121 11.15148 1777 ft 139 kts 195°
2026-05-07 19:29 60.24192 11.14612 1556 ft 139 kts 195°
2026-05-07 19:30 60.23263 11.14072 1366 ft 139 kts 195°
2026-05-07 19:30 60.22335 11.13536 1181 ft 139 kts 195°
2026-05-07 19:30 60.21404 11.12990 994 ft 139 kts 195°
2026-05-07 19:30 60.20479 11.12452 813 ft 138 kts 195°
2026-05-07 19:31 60.19555 11.11925 691 ft 132 kts 195°
2026-05-07 19:31 60.18929 11.11561 685 ft 50 kts 196°
2026-05-07 19:31 60.18661 11.11414 683 ft 33 kts 195°
2026-05-07 19:31 60.18460 11.11193 682 ft 31 kts 229°
2026-05-07 19:32 60.18445 11.10997 680 ft 0 kts 280°
2026-05-07 19:32 60.18448 11.10963 682 ft 6 kts 280°
2026-05-07 19:32 60.18462 11.10840 682 ft 11 kts 288°
2026-05-07 19:33 60.18531 11.10767 683 ft 14 kts 11°
2026-05-07 19:33 60.18634 11.10825 683 ft 17 kts 17°
2026-05-07 19:33 60.18751 11.10895 683 ft 18 kts 16°
2026-05-07 19:33 60.18848 11.10951 684 ft 14 kts 16°
2026-05-07 19:34 60.18940 11.11004 685 ft 11 kts 16°
2026-05-07 19:34 60.19012 11.11045 685 ft 7 kts 16°
2026-05-07 19:34 60.19054 11.11070 685 ft 0 kts 15°
2026-05-07 19:35 60.19074 11.11081 685 ft 7 kts 16°
2026-05-07 19:35 60.19150 11.11126 684 ft 14 kts 16°
2026-05-07 19:35 60.19256 11.11187 683 ft 13 kts 15°
2026-05-07 19:36 60.19346 11.11237 682 ft 12 kts 15°
2026-05-07 19:36 60.19422 11.11192 684 ft 14 kts 299°
2026-05-07 19:36 60.19446 11.11031 683 ft 9 kts 283°
2026-05-07 19:36 60.19457 11.10940 683 ft 11 kts 283°
2026-05-07 19:37 60.19483 11.10765 682 ft 13 kts 291°
2026-05-07 19:37 60.19510 11.10597 680 ft 9 kts 287°
2026-05-07 19:37 60.19527 11.10480 682 ft 7 kts 286°
2026-05-07 19:37 60.19559 11.10398 682 ft 8 kts 323°
2026-05-07 19:38 60.19585 11.10296 682 ft 5 kts 285°
2026-05-07 19:38 60.19595 11.10234 679 ft 4 kts 287°
2026-05-07 19:38 60.19599 11.10204 680 ft 1 kts 287°
2026-05-07 19:38 60.19602 11.10188 682 ft 0 kts 287°